Wind_Speed
7 8 11 13 15 16 17 19 18 18 18 20 20 21 20 19 21 23 24 29 29 31 36 38 41 41 48 49 47 50 53 48 53 57 53 60 56 57 56 53 52 53 48
8 9 10 12 12 13 14 16 19 22 23 25 26 29 27 28 25 22 24 24 28 34 35 30 42 45 44 45 42 52 54 52 55 58 57 56 57 57 57 60 54 53 50
11 12 13 15 15 16 16 16 17 18 19 20 23 24 27 28 28 29 27 29 29 33 37 39 41 37 40 48 45 47 52 54 52 55 60 55 57 56 54 59 60 57 54
11 12 13 14 14 14 14 14 14 15 16 17 18 20 23 25 26 27 29 31 33 33 34 37 41 43 45 40 41 46 53 51 54 55 56 56 56 55 55 55 57 54 56
11 12 12 11 11 11 10 11 11 13 14 15 16 18 21 24 26 30 32 33 35 37 37 38 40 41 42 42 47 50 44 46 47 51 53 52 50 51 58 62 58 54 52
11 10 10 11 12 13 13 14 15 16 17 18 20 23 25 24 23 24 28 33 37 40 43 43 43 44 44 43 43 41 48 55 54 51 51 45 57 55 55 61 59 55 47
9 9 10 11 14 15 18 19 22 24 26 27 28 30 31 32 34 36 37 37 38 39 41 44 48 46 45 45 48 49 49 47 48 49 58 56 53 57 51 51 59 58 54
7 8 10 12 15 17 20 22 24 26 27 28 28 29 30 31 32 35 36 36 38 41 43 45 46 49 47 46 48 50 52 52 48 46 50 53 56 64 57 54 50 60 61
6 8 11 14 16 18 20 22 24 24 25 27 28 29 30 30 31 33 36 38 41 43 44 46 48 50 50 46 46 49 54 60 54 53 53 50 64 56 52 53 60 47 54
6 9 12 15 18 20 22 24 25 25 25 26 26 27 28 29 30 32 33 36 40 44 47 48 47 47 50 49 48 52 58 64 57 62 62 63 59 56 50 56 56 56 51
7 10 13 16 18 21 22 24 26 27 28 29 30 30 29 30 31 32 31 34 35 43 48 52 52 51 51 52 50 51 57 57 58 56 57 62 64 62 61 55 50 54 50
9 12 14 16 19 20 22 23 24 26 28 28 28 28 27 30 29 31 30 30 33 37 45 49 52 53 53 52 53 49 44 44 49 52 51 54 55 57 52 48 50 47 52
10 13 15 17 19 21 22 24 25 26 26 26 26 26 28 31 29 31 31 32 32 35 39 43 47 50 50 49 46 45 43 43 47 50 49 49 49 50 50 48 46 45 45
13 15 17 19 21 22 23 24 25 25 25 25 26 27 32 32 31 34 36 35 36 38 39 42 43 43 44 42 41 39 38 34 30 40 49 49 45 45 43 42 45 44 42
16 18 20 21 23 24 23 23 23 22 21 23 22 25 30 32 33 32 33 35 36 34 40 40 42 42 44 46 44 41 39 38 37 36 34 35 42 41 41 39 43 43 44
17 19 21 22 22 23 24 23 21 22 21 19 21 24 26 25 29 31 30 31 34 36 37 38 39 40 40 43 46 47 44 42 41 40 37 35 34 40 38 34 36 40 43
17 18 20 21 21 23 23 25 27 24 23 22 23 25 26 29 28 30 31 32 34 35 36 37 37 38 40 40 42 44 47 44 43 41 40 38 35 31 37 34 34 37 41
17 19 19 20 21 22 24 25 27 29 31 30 27 27 28 30 28 28 32 34 34 34 33 35 38 38 40 40 41 43 44 45 44 44 43 40 39 37 31 32 33 35 37
17 18 19 19 20 22 24 25 27 29 30 32 33 32 32 32 31 30 30 32 34 34 36 36 36 37 38 39 40 41 41 42 44 45 44 43 40 42 36 29 30 33 36
17 18 19 20 21 22 24 26 28 30 31 32 33 34 35 35 36 36 32 31 32 33 34 36 37 37 38 38 40 41 42 41 42 43 45 46 42 43 42 36 30 32 32
16 17 19 20 21 23 25 26 28 29 31 32 32 32 32 32 35 34 35 31 31 33 34 34 36 37 37 38 38 39 40 41 40 40 42 45 44 48 44 40 33 29 32
17 17 18 20 22 23 24 26 27 29 30 32 32 31 31 32 33 33 34 34 32 31 33 34 34 35 35 35 36 37 38 40 40 38 40 43 45 48 45 43 37 31 29
17 18 20 22 23 24 25 25 26 27 29 30 32 33 33 33 33 33 34 34 34 33 32 33 34 33 33 32 32 34 36 37 38 35 37 41 44 47 44 43 40 34 30
18 20 21 22 22 23 24 25 26 27 28 30 31 32 33 33 34 34 33 34 34 34 32 32 32 33 32 31 31 32 33 33 35 30 31 37 42 42 41 40 39 35 30
20 21 22 22 22 24 25 25 27 28 28 29 30 31 33 34 34 34 34 34 34 35 34 33 32 32 30 30 30 31 31 30 33 23 29 32 38 39 39 39 38 36 28
21 21 22 22 23 24 26 27 28 29 30 30 31 32 32 33 34 35 35 35 35 35 35 34 32 29 29 30 31 30 30 29 31 25 27 33 34 39 37 37 36 34 31
Wind_Direction
346 328 320 314 311 313 313 316 323 323 321 318 319 319 312 306 307 299 292 282 279 294 290 286 281 283 273 280 282 281 271 266 257 272 269 278 271 277 278 284 277 268 264
327 324 321 317 314 313 314 311 305 301 302 303 304 310 315 316 314 308 300 297 290 280 274 286 285 288 287 285 283 274 273 272 261 268 273 275 269 281 282 275 274 270 265
316 317 316 314 314 313 313 314 315 315 313 311 313 310 307 312 309 314 302 300 292 284 283 279 273 278 283 282 282 283 280 274 271 264 267 275 270 277 274 274 273 272 275
314 316 317 316 317 320 323 323 323 323 325 327 329 328 327 323 322 314 310 306 303 300 295 291 288 284 275 276 286 286 275 279 278 272 267 269 270 267 267 267 261 273 275
318 322 326 330 335 339 342 344 346 345 345 345 345 343 342 339 333 324 319 314 310 305 303 300 296 292 289 286 279 273 286 281 276 276 270 277 265 262 258 266 260 268 276
323 334 342 344 346 348 351 352 353 354 353 353 352 350 347 346 341 332 323 318 317 316 313 309 307 306 304 297 291 286 275 272 278 281 282 274 278 262 263 258 256 256 254
318 332 345 353 356 356 357 356 356 357 356 356 354 350 345 342 338 334 331 326 323 319 315 312 309 309 311 309 301 294 288 278 268 278 276 276 277 278 267 261 265 255 265
329 345 356 1 1 359 358 357 357 357 356 353 351 346 342 341 338 333 328 326 321 319 318 315 310 308 309 312 310 304 296 292 292 281 270 277 280 277 276 274 274 274 267
350 359 2 3 1 358 358 355 352 351 351 348 347 344 341 339 338 335 331 328 323 319 316 313 311 309 308 308 307 305 299 292 294 290 280 274 264 268 274 276 271 256 254
13 8 2 359 353 352 352 349 347 345 344 341 340 339 338 338 339 339 340 335 329 326 325 324 322 317 311 307 301 298 295 294 297 292 286 280 270 267 270 261 261 264 252
4 358 352 350 346 346 346 343 341 340 339 338 337 338 339 340 341 343 343 338 334 328 330 329 326 323 318 312 306 298 290 296 297 294 293 288 282 279 270 268 264 265 260
348 346 344 340 340 339 337 337 336 334 335 335 334 334 335 337 337 339 337 337 333 329 331 331 330 326 320 315 312 305 298 298 294 291 285 283 283 282 280 272 270 261 265
337 337 334 334 333 333 333 333 335 335 334 334 333 331 331 334 331 336 333 333 331 328 329 331 331 328 323 319 312 307 298 296 293 289 285 282 285 288 286 279 267 268 268
329 328 328 328 328 329 331 331 332 333 331 330 331 326 326 330 329 335 333 333 329 327 327 331 333 331 328 326 321 313 307 305 303 293 287 290 288 288 281 274 267 267 266
325 327 327 327 327 326 326 326 327 330 330 328 326 323 326 327 329 331 331 331 328 329 326 328 331 336 338 337 335 334 330 326 322 315 308 306 298 297 291 282 272 269 264
320 320 320 320 321 322 321 321 323 325 326 324 321 321 323 319 326 328 331 330 331 331 332 333 333 338 342 343 343 341 340 338 335 332 326 320 316 303 301 293 284 269 263
313 315 316 318 319 321 322 323 322 321 324 325 324 323 322 322 326 328 328 328 330 328 334 337 340 340 339 340 341 342 341 343 341 338 337 334 329 324 309 303 284 277 265
310 312 315 316 317 320 321 322 323 324 325 326 326 326 325 325 325 330 328 327 327 332 337 338 338 339 339 339 337 339 340 342 345 344 342 339 339 337 329 309 297 279 270
308 311 314 316 319 320 319 319 319 320 322 323 325 327 327 326 328 332 332 332 333 335 335 336 336 337 337 337 337 337 337 340 342 344 344 344 342 341 337 330 313 296 280
307 310 312 315 316 315 316 316 317 319 320 322 324 327 327 328 331 331 335 335 334 333 333 333 334 335 335 336 336 336 336 337 339 342 343 344 345 342 338 334 331 310 291
304 305 306 308 311 313 315 316 317 319 320 321 322 325 326 325 327 329 330 335 334 332 332 332 333 333 334 334 335 336 336 336 337 338 340 342 346 340 341 335 330 329 307
299 301 303 307 310 313 315 317 318 318 319 319 320 322 323 323 325 326 328 330 332 331 331 331 331 332 333 333 335 336 337 336 336 336 338 342 345 340 341 338 333 326 326
296 302 308 310 313 314 315 316 315 316 317 318 320 321 324 323 324 325 326 327 328 330 330 330 330 330 330 331 334 335 336 337 335 335 338 341 337 338 339 339 336 330 321
299 305 307 308 309 310 312 313 314 315 316 317 319 320 321 322 322 323 324 324 324 326 328 329 329 329 328 330 332 333 332 334 334 333 342 343 331 336 337 337 338 332 327
303 303 303 306 309 310 311 312 313 314 315 317 318 318 320 320 321 321 322 323 323 323 325 327 328 327 329 329 330 329 330 330 333 337 343 340 334 337 339 338 337 336 330
296 298 302 306 308 308 309 310 311 313 315 316 317 317 318 318 319 320 321 321 321 321 322 323 326 327 327 328 329 330 329 331 334 337 344 340 336 339 338 339 338 336 335
Height
1504 1502 1500 1497 1495 1492 1490 1488 1485 1483 1480 1478 1475 1474 1472 1469 1468 1465 1461 1459 1457 1455 1452 1449 1446 1446 1441 1439 1437 1434 1431 1428 1420 1415 1420 1419 1416 1415 1411 1409 1411 1412 1413
1502 1499 1497 1495 1491 1489 1486 1483 1480 1478 1475 1472 1469 1468 1465 1464 1462 1458 1455 1452 1448 1446 1445 1443 1439 1437 1432 1430 1426 1424 1421 1418 1414 1405 1406 1404 1401 1400 1397 1396 1395 1396 1398
1498 1495 1492 1490 1486 1483 1480 1477 1474 1472 1469 1467 1464 1461 1460 1456 1455 1451 1448 1446 1441 1439 1435 1432 1429 1429 1424 1420 1418 1413 1413 1409 1403 1397 1389 1392 1388 1386 1383 1383 1383 1380 1380
1494 1491 1488 1485 1482 1479 1476 1473 1471 1468 1465 1462 1459 1457 1455 1452 1447 1446 1440 1437 1434 1431 1427 1424 1422 1420 1417 1412 1411 1405 1400 1398 1394 1389 1381 1378 1378 1373 1372 1369 1368 1367 1365
1488 1486 1483 1481 1478 1476 1473 1470 1467 1464 1461 1458 1456 1454 1450 1448 1442 1439 1434 1429 1426 1420 1417 1415 1413 1409 1405 1404 1402 1397 1393 1387 1383 1379 1371 1371 1365 1364 1358 1355 1351 1354 1351
1483 1481 1479 1477 1474 1471 1469 1466 1463 1460 1457 1454 1450 1446 1445 1442 1438 1435 1431 1424 1419 1413 1406 1402 1399 1396 1393 1390 1387 1385 1384 1378 1375 1371 1365 1356 1353 1350 1347 1346 1343 1339 1337
1480 1477 1475 1473 1471 1469 1465 1462 1458 1455 1451 1447 1444 1441 1437 1435 1430 1427 1422 1418 1412 1408 1403 1396 1390 1387 1384 1378 1372 1369 1366 1364 1362 1361 1355 1349 1343 1344 1340 1334 1330 1328 1324
1476 1474 1472 1470 1469 1466 1463 1459 1455 1451 1448 1445 1440 1437 1433 1430 1425 1421 1416 1410 1405 1401 1395 1390 1384 1378 1374 1371 1364 1356 1351 1346 1346 1345 1344 1335 1331 1329 1329 1324 1316 1316 1313
1473 1470 1469 1467 1465 1462 1458 1457 1452 1449 1446 1442 1437 1433 1429 1426 1421 1415 1409 1403 1397 1393 1388 1383 1378 1371 1368 1366 1359 1349 1337 1329 1330 1327 1324 1320 1316 1311 1312 1315 1306 1302 1297
1469 1467 1466 1462 1462 1459 1453 1452 1449 1445 1441 1438 1435 1431 1425 1421 1416 1410 1404 1398 1390 1383 1377 1371 1369 1364 1358 1353 1349 1341 1328 1317 1316 1308 1302 1297 1297 1292 1292 1296 1293 1290 1285
1465 1463 1463 1459 1457 1454 1451 1448 1444 1440 1437 1432 1428 1424 1420 1415 1409 1404 1399 1394 1387 1377 1369 1361 1356 1351 1344 1337 1334 1327 1318 1312 1303 1299 1288 1280 1275 1272 1273 1274 1276 1277 1270
1462 1461 1458 1457 1454 1451 1447 1444 1441 1436 1431 1427 1422 1418 1414 1409 1404 1399 1396 1391 1385 1376 1364 1356 1347 1339 1332 1325 1318 1312 1306 1302 1293 1284 1277 1268 1263 1256 1256 1257 1257 1260 1259
1458 1456 1455 1452 1449 1446 1443 1439 1436 1431 1426 1422 1417 1412 1407 1403 1399 1394 1389 1384 1378 1370 1361 1352 1343 1333 1324 1315 1308 1300 1293 1286 1280 1273 1263 1256 1253 1246 1243 1242 1242 1243 1243
1454 1452 1449 1447 1445 1441 1439 1435 1431 1427 1422 1418 1413 1407 1402 1397 1393 1387 1381 1375 1368 1360 1353 1345 1337 1327 1319 1311 1298 1290 1284 1277 1268 1262 1253 1247 1241 1235 1231 1231 1228 1230 1231
1449 1447 1444 1441 1438 1436 1434 1431 1427 1424 1420 1415 1410 1405 1397 1392 1387 1385 1378 1371 1363 1355 1345 1337 1328 1319 1309 1301 1291 1285 1276 1267 1258 1251 1242 1236 1231 1226 1220 1219 1216 1214 1210
1444 1443 1440 1437 1434 1431 1428 1426 1424 1419 1416 1413 1407 1401 1396 1391 1384 1379 1373 1366 1358 1348 1340 1332 1324 1316 1307 1299 1290 1279 1272 1263 1255 1245 1236 1229 1222 1217 1211 1206 1204 1201 1199
1440 1438 1436 1433 1430 1426 1422 1418 1414 1413 1409 1406 1401 1396 1391 1385 1379 1372 1366 1358 1352 1344 1336 1329 1322 1312 1305 1298 1290 1281 1270 1261 1253 1243 1234 1225 1216 1207 1203 1197 1194 1193 1190
1435 1433 1431 1428 1424 1420 1417 1414 1409 1404 1398 1396 1394 1390 1384 1379 1373 1367 1361 1352 1346 1339 1333 1325 1318 1309 1302 1295 1288 1278 1268 1258 1249 1240 1231 1222 1213 1204 1195 1192 1189 1186 1183
1430 1428 1425 1423 1419 1416 1412 1409 1404 1399 1393 1389 1384 1381 1377 1373 1366 1363 1356 1348 1340 1333 1327 1321 1314 1306 1299 1291 1284 1275 1266 1257 1248 1238 1229 1220 1212 1204 1193 1187 1184 1181 1178
1425 1423 1421 1418 1415 1412 1408 1403 1399 1393 1388 1383 1378 1374 1369 1363 1357 1351 1349 1343 1336 1329 1323 1315 1308 1301 1294 1286 1278 1270 1261 1253 1245 1236 1228 1219 1210 1203 1195 1186 1180 1177 1174
1421 1419 1416 1413 1410 1407 1403 1398 1393 1387 1382 1377 1373 1369 1365 1357 1351 1346 1340 1337 1331 1324 1317 1310 1303 1296 1289 1282 1274 1267 1258 1251 1243 1235 1226 1217 1208 1200 1192 1185 1177 1171 1168
1416 1414 1411 1408 1404 1400 1397 1391 1387 1382 1377 1371 1367 1363 1358 1352 1347 1341 1335 1329 1325 1320 1313 1305 1299 1292 1285 1278 1271 1264 1256 1248 1240 1232 1224 1216 1207 1200 1191 1183 1175 1169 1164
1410 1407 1405 1402 1396 1393 1389 1386 1382 1377 1372 1367 1361 1355 1351 1346 1341 1335 1329 1323 1318 1313 1308 1301 1294 1288 1282 1275 1269 1262 1254 1246 1238 1231 1222 1214 1207 1200 1191 1183 1176 1169 1164
1404 1400 1398 1395 1391 1387 1383 1380 1376 1372 1367 1361 1356 1350 1345 1340 1334 1328 1323 1317 1312 1306 1301 1296 1290 1283 1277 1270 1264 1258 1252 1245 1237 1229 1223 1215 1209 1200 1192 1184 1177 1169 1162
1395 1394 1391 1387 1384 1381 1377 1374 1370 1365 1360 1355 1350 1345 1339 1333 1328 1322 1316 1311 1305 1299 1294 1289 1284 1277 1271 1265 1260 1254 1247 1240 1233 1226 1222 1216 1209 1201 1192 1183 1176 1168 1162
1390 1387 1384 1381 1377 1374 1371 1367 1363 1358 1353 1349 1344 1338 1333 1327 1321 1315 1309 1304 1298 1292 1287 1282 1277 1272 1266 1260 1254 1248 1241 1236 1229 1224 1220 1214 1206 1199 1192 1184 1176 1169 1164